Content
SEND FEEDBACK

Daily
Averages
Monthly
Summary
United States of America

MONTAGUE, CALIFORNIA


Home > North America > United States > California
Elevation: 808 meters     Latitude: 41 46N     Longitude: 122 28W

WEATHER
 
SELECT A DAY
Number of Records: 245,053;   Date Range: 1/1/95 - 12/16/14
 
SHARE

PRINT THIS DATA

[ ← Previous Day ]
WEATHER ALMANAC - 31 JANUARY, 2013
[ Next Day → ]
[ °F ]   °C
Weather ElementAverageHighLow
Temperature-1.9 °C5.6 °C (3:53 pm)-4.4 °C (3:53 am)
Dewpoint-3.4 °C1.7 °C (3:53 pm)-6 °C (2:30 am)
Humidity90.1 %100 % (11:18 am)76 % (3:53 pm)
Barometer1029.8 hPa1032.8 hPa (12:53 am)1026.4 hPa (2:22 pm)
Wind Speed3.2 km/h11.1 km/h (12:53 pm)
Weather ElementAverage
Visibility5.1 km
Wind DirectionENE (74.9 °)

Weather ElementTotal
Precipitation---
Heating Degree Days17.7 (Base 18.3)
Averaged from 55 records on 31 January, 2013
WEATHER CONDITIONS BREAKOUT
WIND DIRECTION BREAKOUT
WEATHER BY HOUR - 31 JANUARY, 2013
[ °F ]   °C
Local TimeTemperatureDewpointHumidityBarometerVisibilityWind DirectionWind SpeedGust SpeedPrecipitationEventsConditions
12:38 AM-2 °C-3 °C93 %1029.8 hPa4.8 kmCalmClear
12:53 AM-3.9 °C-4.4 °C96 %1032.8 hPa1.6 kmCalmMist
1:00 AM-3 °C-5 °C86 %1029.5 hPa0.8 kmCalmFogLight Freezing Fog
1:04 AM-3 °C-4 °C93 %1029.5 hPa2.4 kmCalmPartly Cloudy
1:06 AM-3 °C-4 °C93 %1029.5 hPa6.4 kmCalmPartly Cloudy
1:35 AM-3 °C-4 °C93 %1029.5 hPa2.4 kmCalmClear
1:43 AM-3 °C-4 °C93 %1029.5 hPa0.8 kmCalmFogLight Freezing Fog
1:51 AM-3 °C-4 °C93 %1029.5 hPa2.4 kmCalmPartly Cloudy
1:53 AM-3.3 °C-4.4 °C92 %1032.2 hPa4 kmEast (100°)5.6 km/hPartly Cloudy
2:00 AM-3 °C-4 °C93 %1029.5 hPa11.3 kmCalmPartly Cloudy
2:30 AM-4 °C-6 °C86 %1029.8 hPa2.9 kmCalmScattered Clouds
2:36 AM-4 °C-6 °C86 %1029.5 hPa1.3 kmCalmMist
3:11 AM-4 °C-6 °C86 %1029.5 hPa3.2 kmCalmMostly Cloudy
3:15 AM-4 °C-6 °C86 %1029.5 hPa1.3 kmWSW (240°)5.6 km/hMist
3:24 AM-4 °C-6 °C86 %1029.5 hPa0.3 kmSW (220°)5.6 km/hFogLight Freezing Fog
3:43 AM-4 °C-6 °C86 %1029.5 hPa0.8 kmWSW (240°)5.6 km/hFogLight Freezing Fog
3:50 AM-4 °C-6 °C86 %1029.5 hPa0.3 kmSW (230°)5.6 km/hFogLight Freezing Fog
3:53 AM-4.4 °C-5.6 °C91 %1032.2 hPa0.3 kmSW (230°)5.6 km/hFogLight Freezing Fog
4:01 AM-4 °C-6 °C86 %1029.5 hPa0.8 kmCalmFogLight Freezing Fog
4:45 AM-4 °C-5 °C93 %1029.5 hPa0.3 kmCalmFogLight Freezing Fog
4:53 AM-4.4 °C-5.6 °C91 %1032.2 hPa0.3 kmCalmFogLight Freezing Fog
5:53 AM-4.4 °C-5.6 °C91 %1031.8 hPa0.3 kmCalmFogLight Freezing Fog
6:14 AM-4 °C-6 °C86 %1028.8 hPa0.8 kmCalmFogLight Freezing Fog
6:28 AM-4 °C-6 °C86 %1028.8 hPa0.3 kmEast (90°)5.6 km/hFogLight Freezing Fog
6:50 AM-4 °C-5 °C93 %1028.8 hPa1.3 kmNNE (20°)7.4 km/hMist
6:53 AM-3.9 °C-5 °C92 %1031.8 hPa1.6 kmNorth (10°)7.4 km/hMist
7:00 AM-4 °C-6 °C86 %1028.8 hPa0.8 kmNorth (360°)7.4 km/hFogLight Freezing Fog
7:02 AM-4 °C-5 °C93 %1028.8 hPa0.3 kmNorth (360°)9.3 km/hFogLight Freezing Fog
7:53 AM-3.9 °C-4.4 °C96 %1032.5 hPa0.3 kmCalmFogLight Freezing Fog
8:53 AM-2.8 °C-3.3 °C96 %1032.5 hPa0.3 kmCalmFogLight Freezing Fog
9:53 AM-1.7 °C-2.8 °C92 %1032.8 hPa0.3 kmCalmFogLight Freezing Fog
10:38 AM-1 °C-2 °C93 %1029.5 hPa1.6 kmCalmMist
10:50 AM-1 °C-2 °C93 %1029.5 hPa0.8 kmSW (230°)5.6 km/hFogLight Freezing Fog
10:53 AM-0.6 °C-1.7 °C92 %1032.5 hPa0.8 kmCalmFogLight Freezing Fog
11:18 AM0 °C0 °C100 %1029.1 hPa1.6 kmCalmOvercast
11:50 AM0 °C0 °C100 %1028.4 hPa3.2 kmSW (220°)5.6 km/hOvercast
11:53 AM0 °C0 °C100 %1031.5 hPa4 kmCalmOvercast
12:02 PM1 °C1 °C100 %1028.4 hPa8 kmSSW (210°)7.4 km/hOvercast
12:53 PM1.7 °C0.6 °C92 %1030.8 hPa16.1 kmSouth (190°)11.1 km/hOvercast
1:53 PM3.3 °C1.1 °C86 %1029.8 hPa16.1 kmSouth (180°)11.1 km/hMostly Cloudy
2:22 PM4 °C1 °C81 %1026.4 hPa16.1 kmSSW (210°)11.1 km/hScattered Clouds
2:53 PM4.4 °C1.1 °C79 %1028.8 hPa16.1 kmSouth (190°)7.4 km/hClear
3:53 PM5.6 °C1.7 °C76 %1028.8 hPa16.1 kmSW (230°)9.3 km/hClear
4:53 PM5 °C1.7 °C79 %1028.8 hPa16.1 kmCalmClear
5:53 PM1.1 °C-1.1 °C85 %1029.5 hPa16.1 kmSE (140°)5.6 km/hClear
6:53 PM0 °C-1.7 °C88 %1029.5 hPa16.1 kmCalmClear
7:53 PM-1.7 °C-2.8 °C92 %1029.5 hPa16.1 kmCalmClear
8:53 PM-1.7 °C-2.8 °C92 %1029.8 hPa1.6 kmCalmClear
8:58 PM-2 °C-3 °C93 %1026.4 hPa0.8 kmNorth (10°)5.6 km/hFogLight Freezing Fog
9:17 PM-2 °C-4 °C86 %1026.4 hPa0.8 kmENE (60°)5.6 km/hFogLight Freezing Fog
9:23 PM-2 °C-3 °C93 %1026.4 hPa1.9 kmENE (60°)5.6 km/hScattered Clouds
9:25 PM-1 °C-3 °C86 %1026.4 hPa6.4 kmNE (40°)5.6 km/hPartly Cloudy
9:53 PM-2.8 °C-4.4 °C89 %1029.8 hPa16.1 kmNE (50°)9.3 km/hClear
10:53 PM-2.8 °C-3.9 °C92 %1029.8 hPa16.1 kmCalmClear
11:53 PM-2.8 °C-3.9 °C92 %1030.1 hPa16.1 kmCalmClear
Hourly data recorded from KSIY, located 0 kilometers away from Montague, California







STORIES FROM OUR PARTNERS